Wind_Speed
42 40 38 42 47 48 47 46 46 44 43 41 41 41 41 41 41 44 45 44 42 37 35 38 40 38 35 33 35 37 39 40 43 49 53 55 55 56 58 57 55 52 50 49 47 46 45 44 44 44 45 44 44 45 44 44 43 42 43 44 44 44 44 42 41 41 41 41 42 42 42 42 42 41 41 41 41 42 42 43 44 44 44 44 44 43
43 41 41 47 50 49 49 50 50 49 48 46 45 45 45 45 45 46 47 47 45 40 36 38 39 39 38 36 35 36 36 39 44 48 50 52 53 55 57 56 54 52 50 49 49 48 47 45 44 45 46 46 46 46 46 46 45 45 45 46 46 46 46 46 45 45 44 45 45 44 45 45 45 45 45 44 44 44 44 45 45 45 45 45 45 44
44 43 45 49 51 51 51 52 53 52 51 50 49 49 47 48 48 46 47 48 46 43 39 38 36 37 39 39 37 37 36 40 45 47 49 51 52 55 57 56 56 55 53 52 53 54 52 50 48 48 48 48 48 48 49 49 49 48 48 48 48 49 49 49 49 49 48 48 48 48 48 49 49 48 48 48 48 48 47 48 48 47 47 46 46 45
47 47 49 51 52 52 53 54 54 54 52 52 52 50 48 49 49 45 45 48 47 44 42 39 35 34 37 38 39 40 40 44 47 49 51 52 54 57 58 58 59 57 55 56 57 57 56 55 53 52 52 51 51 51 51 52 53 53 52 51 51 51 52 52 53 53 52 52 52 51 51 51 51 51 51 51 52 52 51 51 51 50 50 49 49 48
54 54 55 55 55 55 54 54 56 56 53 53 54 53 52 52 51 47 46 46 46 45 44 42 38 35 36 37 40 43 45 46 48 51 54 55 55 58 60 61 61 60 58 58 60 59 58 58 57 56 55 55 54 53 53 54 55 56 55 55 54 54 54 54 55 55 55 55 55 55 54 53 53 53 53 53 53 54 53 53 52 52 52 51 51 51
59 62 62 61 60 60 58 58 60 60 55 54 56 58 57 55 53 52 51 49 47 46 46 46 43 38 38 39 40 44 47 48 50 52 54 54 55 57 60 62 63 63 63 63 63 62 61 61 60 59 57 56 57 56 55 55 55 56 57 58 57 57 56 56 55 56 56 56 56 56 56 56 56 56 56 56 55 55 55 54 54 54 53 53 53 53
62 65 66 65 64 64 64 64 67 66 60 57 59 62 62 60 58 57 57 55 51 48 47 48 47 41 40 42 43 44 47 49 54 57 57 56 55 55 59 63 64 65 66 65 66 65 64 64 64 62 61 59 59 58 58 57 56 56 57 59 59 59 58 57 57 56 56 56 57 57 57 57 57 57 58 58 57 57 56 56 56 56 55 55 54 53
65 67 67 67 68 68 68 70 72 71 66 62 63 66 65 64 63 61 61 60 56 52 48 48 50 46 42 45 49 50 49 50 54 59 61 61 60 59 59 62 65 65 66 66 66 67 67 67 66 65 65 63 61 60 60 59 59 58 59 60 61 60 60 59 59 58 58 58 59 59 59 59 58 58 58 58 58 58 57 57 56 56 56 56 55 55
69 69 69 70 70 71 72 73 74 74 72 69 68 69 68 66 65 64 63 62 60 57 51 50 55 54 47 46 51 52 51 51 53 56 60 60 61 61 60 62 65 65 66 68 68 67 68 69 68 66 66 67 66 65 64 64 64 64 63 64 64 63 62 62 62 61 60 60 60 60 61 61 61 60 59 59 59 59 59 58 57 56 56 56 56 56
73 71 71 71 72 73 74 75 76 77 76 74 72 71 70 69 68 67 66 64 63 60 55 55 61 61 52 47 51 52 53 57 59 61 64 64 63 62 60 60 63 64 64 66 68 66 66 68 69 67 66 67 67 66 66 66 66 66 66 66 66 66 65 64 65 64 64 64 63 63 63 63 63 63 62 62 62 61 61 60 59 58 57 56 57 57
76 73 72 71 72 73 74 76 77 77 77 77 75 74 73 73 71 71 69 69 69 65 60 61 65 65 57 50 55 59 61 67 72 73 73 74 73 71 68 65 65 67 66 66 68 69 68 69 70 70 69 69 68 68 67 67 67 67 67 66 66 66 66 66 66 67 67 67 67 67 66 66 66 65 65 65 65 64 64 63 62 61 59 58 59 59
77 75 73 72 72 72 74 75 76 77 78 78 78 78 78 78 76 77 75 76 77 72 67 66 68 69 63 60 66 71 70 73 76 78 80 81 82 80 79 76 73 74 73 72 73 74 74 73 73 74 74 74 73 73 73 72 72 71 71 70 69 68 68 68 68 69 69 69 70 69 69 69 68 67 67 68 68 67 67 66 65 64 63 62 62 62
78 78 77 76 75 76 77 77 78 80 82 82 83 83 83 83 83 84 83 83 81 77 74 74 75 75 71 71 77 80 81 82 82 83 85 87 87 84 82 81 80 80 80 79 78 77 78 78 78 78 79 79 77 77 77 77 77 77 76 76 75 74 73 72 72 73 73 73 73 72 72 71 70 69 69 70 71 71 71 70 69 68 67 67 67 67
80 79 80 81 81 81 81 82 84 85 86 87 88 88 89 90 90 90 89 88 87 85 85 85 85 83 79 80 83 85 88 90 89 91 92 92 91 88 85 85 85 85 85 84 84 83 84 84 84 83 82 82 81 80 79 80 80 81 81 81 80 80 79 78 77 77 78 77 76 76 75 74 74 73 72 72 73 74 74 74 73 73 73 73 73 73
84 81 82 86 87 85 86 88 89 89 89 89 89 91 92 92 94 96 95 95 95 96 96 96 95 92 87 87 89 89 90 91 91 94 95 96 95 93 91 91 91 91 91 91 90 90 90 89 89 88 87 86 84 82 81 81 82 83 84 84 85 85 85 84 84 83 82 82 81 80 79 78 78 77 77 76 76 76 76 77 77 77 77 77 77 77
90 86 85 90 92 91 92 93 93 92 91 90 91 93 94 94 98 101 102 102 103 105 105 103 102 97 94 93 92 92 93 92 93 94 95 96 97 98 98 97 97 96 96 96 95 94 93 92 92 91 91 90 89 87 85 85 84 85 85 86 87 88 88 88 89 88 88 87 87 85 84 83 83 82 82 82 81 81 80 80 80 81 81 81 81 82
97 92 89 93 96 95 95 95 95 94 94 95 96 97 98 100 103 107 110 111 112 113 111 107 104 100 98 98 98 97 97 96 97 97 97 98 99 100 101 101 101 101 101 100 99 98 96 94 94 94 94 94 95 94 93 92 91 90 89 89 89 90 90 91 91 91 91 91 91 91 90 89 89 88 88 87 87 87 86 85 85 84 85 85 86 86
104 100 95 95 97 99 98 98 99 99 100 101 102 102 103 106 110 113 115 117 116 116 114 109 106 103 102 102 101 101 102 103 104 104 103 103 102 102 102 103 104 103 104 104 103 102 100 98 98 97 98 99 99 99 99 99 98 97 96 95 94 93 93 93 93 94 95 95 95 95 94 94 94 93 93 92 92 92 91 91 90 89 90 91 91 92
108 107 104 101 103 105 105 104 104 105 105 107 108 109 111 113 115 116 117 118 118 118 117 114 110 108 107 104 103 103 105 106 108 108 108 107 105 104 104 104 105 106 107 107 107 107 106 105 104 103 103 103 104 104 105 105 104 104 103 101 100 98 97 97 96 97 97 98 99 99 98 99 98 98 97 97 96 96 96 96 95 95 95 96 97 97
112 113 111 107 107 110 111 110 109 110 111 113 114 115 116 117 117 118 119 120 120 120 121 121 119 116 111 106 106 107 107 107 107 107 108 109 108 108 108 108 108 109 111 111 112 112 111 111 110 109 108 108 108 108 108 109 109 108 107 105 104 103 102 101 101 100 100 101 101 101 102 103 103 104 103 102 101 100 100 99 99 99 100 100 101 101
117 118 118 115 113 115 115 115 116 116 117 119 119 119 120 120 121 123 124 124 124 125 126 126 126 122 115 110 109 111 111 109 107 106 107 108 109 110 111 112 113 114 115 116 116 116 116 115 114 114 113 112 112 112 111 111 111 111 109 108 106 105 105 104 104 104 104 104 104 104 105 105 106 107 107 107 107 106 104 103 102 103 103 104 104 105
122 125 126 124 122 120 119 120 122 122 122 122 123 123 122 124 126 128 129 128 128 128 129 129 130 127 121 116 114 114 114 113 112 110 110 109 110 111 112 114 115 115 116 117 118 118 118 117 117 117 116 116 115 115 115 114 113 113 112 110 108 107 106 106 106 106 106 107 107 108 108 108 109 110 111 111 112 111 110 108 107 106 106 107 107 108
127 129 130 129 127 125 123 123 124 125 126 127 127 127 126 127 129 131 131 129 129 129 130 131 132 131 126 122 119 118 117 116 116 115 114 114 114 113 113 114 114 115 116 117 118 120 120 120 120 120 120 120 119 118 118 117 116 115 114 113 112 110 109 109 109 109 109 109 110 111 111 111 112 112 113 114 115 116 116 115 113 111 110 110 110 111
130 131 132 132 130 129 127 126 127 129 130 131 131 131 131 130 129 130 130 130 130 131 131 132 135 134 129 126 124 123 121 119 119 118 118 118 118 118 117 117 117 117 118 119 120 121 122 123 123 123 123 123 122 121 120 119 119 118 117 116 115 114 114 113 113 113 113 113 113 114 114 114 115 115 115 116 117 118 119 119 118 117 115 114 114 114
132 133 134 135 135 133 131 130 130 131 133 133 133 132 131 131 130 130 131 133 134 134 134 136 137 136 133 130 129 127 124 123 122 121 121 121 121 122 122 122 122 121 121 122 122 122 123 124 124 125 126 126 125 124 123 122 121 121 121 120 120 119 119 118 118 117 117 117 117 118 118 118 118 118 119 119 119 120 121 122 122 122 120 119 117 117
136 136 137 138 138 137 136 135 134 133 134 134 132 131 131 131 132 133 134 136 138 138 138 139 140 139 136 135 133 130 127 126 125 124 124 125 125 126 126 126 126 126 126 126 126 126 126 126 126 127 127 127 127 126 125 124 123 124 124 125 125 124 124 123 123 122 122 121 121 121 122 123 123 123 123 124 124 124 125 125 126 127 126 125 123 122
136 136 137 136 137 137 137 136 136 136 136 135 134 133 133 134 134 135 137 138 139 140 141 141 141 140 138 135 132 130 128 127 126 124 124 124 125 127 128 128 128 129 130 131 132 132 131 130 129 129 128 128 127 127 126 126 126 126 127 129 130 130 129 129 128 128 128 127 127 127 127 128 129 129 129 129 130 130 130 131 132 133 133 131 129 127
137 137 136 136 136 137 137 137 138 138 139 139 138 138 138 138 138 139 138 138 139 141 141 139 137 136 134 130 127 125 125 124 124 122 122 121 121 122 123 123 124 126 128 130 132 134 135 136 135 134 134 132 131 131 130 130 130 131 132 134 136 138 138 138 137 136 135 134 134 134 135 136 136 136 136 137 138 139 140 140 140 141 141 139 137 135
140 140 139 139 139 139 139 139 140 141 142 142 141 140 139 138 137 136 135 135 135 136 135 132 131 130 128 124 122 121 121 121 121 120 119 118 118 118 119 119 120 120 121 122 124 126 129 132 135 137 138 139 139 139 139 139 139 139 140 141 143 144 145 144 143 142 141 140 140 140 140 140 141 141 142 142 143 144 145 145 144 144 145 145 144 143
141 140 140 141 140 140 139 138 139 140 141 140 138 136 133 130 127 127 128 129 130 131 130 128 126 125 122 120 120 119 119 119 118 117 116 116 115 116 116 117 117 117 117 117 117 118 119 121 124 127 130 132 135 136 137 138 138 138 138 137 137 138 138 139 139 140 141 141 141 141 142 141 141 140 139 139 139 138 139 139 139 141 142 143 144 145
138 138 138 138 138 138 135 134 135 136 136 134 131 126 122 120 120 122 123 124 126 127 126 125 125 122 118 117 119 119 118 117 116 115 114 114 114 114 114 114 114 114 114 114 114 114 115 116 117 118 119 121 122 124 125 125 126 126 126 126 126 127 127 129 130 131 133 135 136 137 137 138 137 136 134 133 132 131 131 132 133 135 136 138 139 139
135 135 134 135 136 134 130 129 130 131 131 128 122 117 115 116 119 120 120 121 122 123 123 124 123 120 118 118 119 119 118 117 116 115 114 114 114 114 114 113 113 112 112 112 112 113 113 114 114 115 115 116 116 116 116 117 117 118 119 120 120 120 121 122 123 124 125 126 128 129 129 130 131 131 131 130 129 129 129 129 129 130 131 132 133 134
131 131 131 132 133 130 126 125 127 128 126 119 112 112 115 117 117 118 118 118 119 120 122 123 121 120 119 119 118 118 117 116 115 114 114 113 113 113 112 112 111 111 111 111 112 112 112 112 112 113 114 114 114 114 114 114 113 114 115 116 116 117 118 118 119 120 121 122 123 124 125 126 126 127 128 129 129 129 128 127 127 128 128 129 129 129
127 127 128 130 131 129 125 123 126 126 120 111 108 113 115 115 116 117 117 116 115 116 119 120 119 119 118 117 117 116 115 114 113 112 111 111 111 110 110 110 110 111 111 111 111 111 110 109 109 110 111 112 113 114 114 114 113 112 112 113 113 114 114 115 116 117 118 119 121 122 124 124 125 125 126 127 128 129 129 128 127 127 127 127 127 127
124 125 126 127 129 128 125 125 126 123 116 111 111 112 111 112 115 117 115 112 110 111 113 115 116 117 116 115 115 114 113 112 110 109 108 108 108 108 108 108 108 109 110 110 110 110 109 109 108 108 108 109 110 111 112 112 112 112 112 112 112 112 112 113 113 114 115 116 117 119 120 121 123 123 124 125 126 127 128 129 129 128 126 125 125 125
123 124 125 125 126 126 124 124 123 119 113 110 109 108 107 109 111 112 110 105 103 105 107 110 112 113 113 113 113 113 112 110 107 105 105 105 106 106 106 105 106 107 108 109 109 109 109 108 108 107 107 107 108 109 109 109 109 109 110 111 111 111 111 111 111 112 113 113 114 115 117 118 119 120 122 123 123 124 125 127 128 129 128 127 125 124
124 124 125 124 124 123 122 120 117 113 108 104 103 103 104 106 105 105 104 100 98 100 103 106 108 110 111 111 112 112 110 108 105 103 102 104 105 106 106 105 105 106 107 108 108 108 108 108 107 106 106 106 106 107 107 107 106 106 107 108 110 110 110 109 109 110 110 109 110 112 114 115 116 117 119 120 121 122 123 124 126 127 128 128 127 125
122 122 123 123 121 119 118 117 113 109 104 101 100 101 102 103 102 103 103 100 96 96 100 104 106 107 108 110 110 110 110 108 104 101 101 103 105 107 107 106 106 106 107 108 108 108 108 107 106 105 105 105 106 106 106 105 104 104 105 106 107 108 108 109 109 109 108 107 107 109 111 113 114 115 116 117 118 119 121 122 123 125 126 128 128 128
118 118 119 119 117 114 115 114 110 106 103 102 102 101 101 101 101 103 106 102 96 96 100 102 103 104 106 107 108 108 108 106 103 101 101 103 105 107 109 108 107 107 107 108 108 109 108 108 107 106 105 106 106 106 106 105 104 103 103 104 105 106 107 108 108 108 107 106 106 107 109 110 111 112 113 114 115 116 117 118 120 122 124 125 126 127
112 113 113 113 111 110 111 111 108 105 103 103 103 103 101 100 102 104 105 102 98 98 99 99 99 100 102 103 103 103 103 103 102 101 101 102 103 106 108 108 108 108 108 108 108 109 108 107 106 106 106 106 106 106 106 104 103 102 102 103 104 105 106 107 106 105 104 104 105 106 107 108 109 110 111 111 112 113 114 115 116 118 120 122 123 124
107 108 108 107 107 108 109 109 107 104 101 102 104 103 101 101 102 103 102 101 100 98 95 95 96 97 97 98 99 99 100 100 100 100 99 100 100 102 104 107 108 107 107 107 107 107 106 105 104 104 104 104 105 105 104 103 101 100 101 102 102 103 105 104 103 102 102 103 103 104 105 106 107 108 108 108 109 109 110 112 114 115 117 118 120 121
105 106 104 103 104 106 106 105 104 101 98 99 102 102 101 102 102 100 99 99 98 94 92 92 93 93 94 94 94 96 96 97 97 98 97 97 97 99 100 103 104 105 105 105 105 105 104 102 102 101 101 101 102 102 102 101 99 98 99 99 100 101 101 100 98 99 100 99 100 101 103 104 105 105 105 106 106 106 106 107 109 111 113 114 116 118
104 104 101 100 102 103 101 99 99 99 97 98 99 100 100 100 99 98 97 96 94 92 91 91 91 92 92 92 92 93 93 93 94 95 95 94 95 96 98 99 101 101 102 102 102 101 100 99 98 98 97 98 99 99 99 98 97 96 96 96 97 98 97 95 95 96 97 97 97 98 99 100 101 101 102 102 103 103 103 103 105 107 108 109 111 113
101 101 99 96 98 100 96 94 97 100 98 96 98 99 98 97 97 96 94 92 91 90 90 90 89 89 90 90 90 90 90 90 91 91 91 92 92 93 95 95 96 97 97 97 97 96 96 95 93 93 93 94 95 96 96 96 95 94 95 96 96 96 94 93 94 95 95 95 96 97 97 98 98 99 100 100 100 100 100 100 101 103 104 105 106 107
99 99 98 94 94 97 93 91 97 101 96 93 94 96 95 95 94 93 91 88 87 88 89 89 88 87 88 88 88 87 88 88 88 88 89 89 90 91 91 92 92 93 93 93 93 93 93 92 91 90 90 91 93 95 95 95 95 94 94 95 95 95 93 93 93 94 94 95 95 96 97 97 97 98 99 99 99 99 98 98 99 100 101 102 103 103
97 98 96 92 92 94 91 90 97 99 93 89 90 92 93 92 90 89 89 87 85 85 86 87 87 87 87 87 86 86 86 86 86 86 87 88 88 89 89 90 90 91 91 91 91 91 91 91 91 90 89 89 91 93 94 94 94 94 93 93 94 94 93 93 93 93 93 94 95 95 96 96 96 96 97 98 98 98 97 97 98 98 99 100 101 102
95 95 92 89 91 92 89 90 96 97 90 86 87 88 90 91 89 88 88 86 84 84 85 85 85 85 85 84 84 84 84 84 85 85 86 87 88 88 89 89 89 90 90 90 90 90 90 90 90 90 89 89 90 92 93 93 94 94 93 92 92 93 92 91 91 91 91 92 92 93 93 93 93 93 94 96 96 97 96 96 97 97 97 97 99 100
94 92 89 89 90 89 87 89 94 94 87 84 85 87 87 88 88 88 88 86 85 84 83 83 83 83 83 83 83 83 83 84 84 85 85 86 87 87 88 88 88 89 89 90 90 90 90 90 90 90 89 89 90 91 92 93 93 93 92 91 90 90 89 88 88 88 87 88 89 89 89 90 90 89 90 92 93 94 95 95 96 96 95 95 97 98
92 88 88 90 87 85 86 90 93 91 85 82 85 87 86 86 86 87 87 86 85 84 83 82 82 82 82 82 82 83 83 84 84 85 85 86 86 87 87 88 88 89 89 90 90 90 90 90 89 89 89 89 89 89 89 89 90 90 89 88 87 87 85 84 84 84 84 84 85 84 84 85 86 86 87 88 89 90 91 92 93 94 93 92 94 95
90 86 87 88 84 82 85 89 92 90 84 81 84 86 86 85 85 85 85 84 84 83 83 83 82 82 82 83 83 83 84 84 85 85 85 85 86 86 86 87 87 88 89 89 89 89 89 88 87 86 85 85 85 85 84 85 85 86 87 86 85 84 83 81 81 80 81 82 82 81 81 81 82 83 84 85 85 86 87 88 89 90 90 90 91 93
88 85 86 87 84 81 82 85 89 88 85 82 83 85 85 84 84 84 84 83 83 83 83 84 84 84 84 84 84 84 84 84 85 85 85 85 85 85 86 86 86 86 87 87 86 85 84 84 83 83 82 82 81 81 80 81 82 83 83 82 82 81 80 79 79 78 79 80 80 79 79 78 79 80 82 82 83 84 84 84 85 87 87 86 87 89
Wind_Direction
283 284 285 282 279 281 284 285 284 282 281 281 280 280 281 283 285 285 285 285 282 278 279 280 279 278 277 275 274 274 276 278 276 273 274 275 275 273 273 274 277 279 280 281 282 282 280 280 280 280 280 282 283 283 282 282 282 282 282 280 278 277 276 273 271 271 272 273 273 273 272 272 271 270 270 270 270 270 270 269 269 268 267 267 268 268
283 285 284 281 281 283 284 283 282 282 281 281 280 278 279 279 280 281 284 285 283 280 278 277 276 277 276 273 273 272 272 275 275 275 275 276 276 274 274 275 276 276 277 279 279 278 278 277 278 278 278 279 280 281 281 281 281 281 281 281 280 278 276 275 274 273 273 275 274 273 271 270 269 268 267 268 268 268 269 269 269 268 267 267 267 267
285 286 283 281 281 282 282 282 283 283 282 281 280 278 278 278 277 278 280 282 282 282 281 278 274 272 271 269 268 270 271 273 274 275 276 276 277 276 276 276 276 275 276 276 276 276 276 277 277 278 278 278 278 279 279 280 280 280 279 278 278 278 277 276 275 274 274 275 274 271 270 269 269 268 268 267 267 267 267 267 267 268 268 268 268 268
286 285 282 281 282 282 283 283 283 282 282 282 281 280 279 278 277 277 277 279 281 282 281 280 277 272 270 267 263 264 267 270 272 273 273 274 276 277 277 278 278 278 277 276 275 275 276 278 279 279 279 279 278 277 277 278 279 280 280 278 276 275 276 276 276 275 274 274 273 271 270 269 269 269 268 268 268 268 267 267 267 267 267 267 267 268
287 285 283 283 283 283 284 284 284 282 282 283 283 282 280 279 280 278 277 277 279 281 281 280 278 275 273 269 264 263 263 266 269 271 273 274 275 276 277 277 277 278 277 277 276 277 278 279 279 280 280 279 278 278 277 277 278 279 280 279 278 276 275 275 276 276 275 274 273 272 271 270 269 269 269 268 268 268 268 268 268 267 267 267 267 267
287 286 285 285 285 285 285 285 284 282 282 284 285 284 282 281 282 281 280 279 278 280 281 281 279 277 276 275 270 265 263 263 265 266 269 272 274 276 277 277 277 277 277 276 277 277 278 278 279 280 280 279 279 279 278 278 278 278 278 279 279 278 276 275 275 275 275 275 274 273 272 271 269 269 268 268 268 268 268 268 267 266 266 265 265 265
285 284 284 285 285 285 285 284 283 283 284 285 284 283 282 282 281 281 281 280 279 279 279 280 281 279 278 278 275 270 266 264 263 263 265 267 270 273 277 279 279 279 279 278 278 278 278 278 278 278 279 279 280 280 280 280 279 278 277 277 277 277 277 276 275 274 274 275 275 276 275 273 271 270 269 269 269 268 268 268 268 267 267 266 265 265
282 282 283 284 283 283 283 282 282 283 283 283 282 281 282 281 280 280 279 279 279 278 278 280 283 282 279 279 279 277 274 269 264 264 265 265 266 267 271 275 278 280 281 281 281 281 281 280 279 278 278 278 278 278 279 280 280 279 278 276 275 275 275 275 275 274 274 274 275 276 276 275 274 272 271 270 269 269 268 268 268 268 268 268 267 267
280 281 282 282 282 282 281 281 281 282 282 282 281 281 282 282 281 280 279 279 279 279 281 283 283 283 281 281 281 281 281 276 270 269 270 269 268 267 266 270 273 276 279 281 281 281 282 282 281 280 279 279 278 278 279 279 280 279 278 278 277 275 274 274 274 274 274 274 273 273 273 273 273 273 272 271 270 268 267 267 267 267 268 268 269 270
279 280 281 281 280 280 280 280 280 280 281 281 281 282 283 284 284 283 283 282 281 283 286 285 282 283 283 283 285 286 285 282 279 278 279 278 276 274 272 271 272 274 275 278 280 281 282 282 282 282 281 280 280 279 279 279 279 279 278 278 277 276 275 274 274 274 274 273 273 272 272 271 271 271 271 270 269 268 267 266 266 266 266 268 270 271
278 279 280 281 280 280 279 279 279 280 281 281 283 284 285 285 286 285 285 284 284 288 290 286 284 285 285 286 289 289 288 287 287 286 284 283 284 284 282 279 277 277 276 275 276 278 279 280 281 281 281 281 282 281 280 278 277 277 276 276 276 275 274 273 272 272 271 271 271 271 271 270 270 270 270 269 268 267 267 266 265 265 265 266 268 269
276 279 282 284 284 284 282 282 282 282 282 283 284 285 286 287 287 288 288 288 288 289 288 284 283 286 290 293 293 292 288 285 285 285 284 285 288 289 289 288 285 283 281 278 276 277 278 279 279 281 282 282 283 282 282 281 279 278 277 276 275 275 274 273 273 271 270 269 269 268 268 268 268 268 268 268 268 267 266 265 264 264 264 265 266 266
276 280 284 287 287 287 285 284 283 283 284 286 287 288 289 290 291 292 291 288 286 287 287 286 287 290 295 295 294 293 290 286 286 285 284 286 289 290 290 289 287 285 284 282 281 280 280 279 280 281 282 282 281 281 281 280 280 279 278 276 275 274 274 273 273 273 273 271 270 269 267 265 265 264 265 266 266 266 265 264 263 263 263 264 265 265
278 281 285 286 287 287 286 285 284 285 286 287 289 290 292 293 293 291 289 287 288 289 290 290 290 293 295 293 291 289 288 288 288 288 289 289 290 290 288 287 285 285 285 284 284 284 283 282 281 282 281 280 279 278 278 278 278 278 277 276 275 274 273 272 272 272 272 272 271 270 269 267 265 263 261 261 262 264 264 264 263 263 263 263 263 264
281 283 286 285 286 287 288 288 287 287 287 288 289 289 291 292 290 287 287 289 292 292 292 292 293 294 294 291 289 287 285 286 286 288 290 290 290 289 287 286 286 287 287 286 286 285 284 284 283 282 281 279 277 275 274 273 274 274 275 275 275 274 274 273 272 271 271 271 270 270 269 268 267 265 263 261 260 260 261 261 262 262 262 262 263 263
284 286 287 286 287 288 288 288 288 287 287 288 289 290 290 288 285 286 289 290 291 291 291 292 293 293 292 290 288 286 285 285 285 286 286 287 287 288 288 288 288 288 287 286 286 284 283 283 282 281 280 279 277 275 273 272 271 271 270 271 271 271 272 272 271 271 271 271 271 271 270 269 268 267 265 264 262 260 259 259 259 259 260 260 261 262
287 288 287 287 288 288 287 287 286 286 287 288 288 288 286 285 286 289 290 290 290 290 291 291 291 291 290 289 289 288 287 285 285 285 285 285 285 286 286 287 287 287 286 286 285 283 281 280 279 279 278 278 277 277 276 276 275 274 272 270 269 268 269 269 269 268 268 269 269 269 269 269 269 267 266 265 265 263 262 260 259 258 258 258 258 259
289 289 289 288 287 287 286 285 286 287 288 287 286 284 284 286 289 290 289 289 289 289 290 290 289 288 287 288 290 289 287 286 287 288 288 286 285 285 285 285 285 285 285 284 284 282 280 278 277 277 277 277 277 278 278 278 278 278 276 274 272 270 269 268 268 267 267 266 266 266 266 266 266 266 266 265 265 264 264 263 261 260 259 258 258 259
288 288 288 288 287 286 285 286 287 287 286 284 284 285 287 288 289 288 287 288 288 288 288 288 287 287 286 287 287 285 284 286 288 289 288 286 284 284 283 282 282 282 281 281 281 281 280 279 278 277 276 276 277 278 278 278 278 278 278 277 275 273 271 270 268 267 266 266 266 265 265 264 264 264 264 264 264 264 263 263 263 262 262 261 261 261
286 286 287 286 285 285 286 287 287 286 284 284 286 287 288 288 288 287 286 286 287 287 288 287 287 287 286 286 285 283 284 285 285 284 284 283 282 281 280 280 279 279 279 280 280 280 280 279 279 278 277 276 276 276 276 277 277 277 277 276 275 274 273 271 270 268 267 266 265 265 265 265 264 264 264 264 263 263 263 263 263 262 262 263 263 263
285 285 285 284 284 285 286 287 286 285 285 286 286 287 287 287 287 286 286 287 287 287 287 287 287 287 287 285 283 284 284 282 280 278 278 278 278 279 279 279 279 279 279 279 279 279 279 279 279 278 277 276 276 276 275 275 276 276 275 275 274 273 272 271 270 268 267 266 265 265 265 264 264 264 264 264 263 263 262 262 262 262 262 263 263 263
283 283 283 284 284 285 285 285 285 285 285 285 285 286 286 286 285 285 286 287 286 286 286 286 286 287 287 285 284 284 283 280 278 276 275 275 275 275 275 276 276 276 276 276 277 277 278 277 277 277 277 277 276 276 276 276 276 276 276 275 274 273 272 271 270 269 267 266 265 264 264 263 264 264 264 264 264 264 263 262 261 261 261 262 262 263
281 282 283 284 284 284 284 284 285 285 285 285 285 285 284 284 284 284 285 285 284 284 285 285 286 287 287 285 284 282 280 279 278 276 275 275 274 273 272 271 271 271 271 272 273 274 275 275 276 276 277 277 277 277 277 277 276 276 276 276 275 274 273 272 271 270 269 268 267 265 264 263 263 263 263 264 264 264 264 263 262 261 260 260 260 261
281 282 283 283 284 284 284 284 285 284 284 284 284 284 283 283 283 283 283 284 284 284 285 285 286 286 286 284 282 280 279 278 277 276 274 274 273 273 272 270 269 269 269 269 270 270 272 273 274 275 276 276 276 276 276 276 275 275 276 275 275 274 273 272 271 271 270 269 268 267 267 266 265 264 263 263 264 264 264 264 263 262 261 260 260 259
282 282 283 283 284 284 284 284 284 284 284 284 284 284 283 283 284 284 284 285 285 286 286 286 285 285 284 282 281 279 278 277 275 274 272 272 271 271 271 271 270 270 269 269 269 269 270 270 271 272 273 274 274 275 275 275 275 275 275 275 275 275 274 273 272 270 269 269 268 267 267 267 266 266 265 264 264 264 265 265 265 264 263 262 261 260
282 283 283 284 284 284 285 285 284 284 284 283 283 283 283 283 284 284 285 285 286 287 285 284 283 284 283 282 280 279 277 275 274 272 271 270 269 269 269 269 269 269 269 269 269 269 269 269 269 270 271 272 273 273 274 274 274 274 274 274 274 274 273 273 272 271 270 269 268 267 267 266 266 266 266 266 265 264 264 265 266 266 265 264 263 261
282 283 283 283 284 284 284 285 285 285 284 283 283 282 282 282 283 283 284 285 285 284 282 281 282 282 281 280 279 278 277 276 274 273 272 270 269 268 267 267 267 266 266 266 266 267 267 267 267 268 268 268 269 269 270 271 271 272 272 272 273 273 272 271 271 270 269 269 268 267 267 266 266 265 266 266 265 265 265 265 265 265 265 265 264 263
280 280 281 281 281 281 282 282 282 282 282 282 281 281 282 282 282 283 283 283 282 281 280 280 280 279 279 279 278 278 277 276 275 274 273 272 271 270 269 268 267 266 265 264 264 264 264 264 264 265 265 265 265 265 265 266 266 267 268 269 270 270 270 270 269 268 268 267 267 267 266 266 266 265 265 265 265 265 265 265 265 264 264 264 264 263
278 279 279 279 279 279 280 280 280 280 280 280 280 280 281 281 282 283 283 282 281 280 279 279 278 278 279 279 279 278 277 276 275 274 274 273 272 272 271 270 269 268 267 266 265 264 263 263 263 263 263 263 264 264 264 264 264 264 265 266 267 267 268 268 268 267 267 267 267 267 267 267 266 266 266 265 265 265 265 265 264 263 263 262 263 263
278 279 279 279 279 279 279 279 280 279 279 280 280 281 281 282 283 283 282 281 280 279 279 279 279 279 279 279 279 278 277 276 275 275 274 274 273 272 271 271 270 270 270 269 268 268 267 266 265 264 264 264 264 264 264 264 265 265 265 265 265 265 265 265 266 266 266 266 266 266 267 267 267 267 266 266 266 265 265 264 264 263 263 262 262 262
280 280 280 280 280 280 280 280 280 280 280 280 281 282 283 284 283 281 280 279 279 279 280 280 280 280 280 279 278 277 277 276 276 276 275 274 274 273 272 272 271 271 271 271 270 270 269 269 268 267 266 266 265 265 265 265 265 265 265 264 264 264 263 263 263 264 264 264 265 265 265 266 266 266 266 266 266 265 265 264 264 263 263 263 263 263
281 281 281 281 280 280 281 280 280 280 280 280 282 284 284 283 281 280 280 280 280 280 280 280 280 280 280 279 278 277 277 277 276 276 275 275 274 274 273 273 273 272 272 271 271 270 270 269 269 268 268 267 266 266 265 265 264 264 264 264 263 263 263 263 262 262 262 262 263 263 263 264 264 265 265 265 265 265 265 265 264 264 264 263 263 264
281 281 281 281 281 281 281 281 280 280 279 281 284 284 282 281 280 280 280 280 280 280 280 280 280 280 279 278 278 277 277 276 276 275 275 275 275 275 274 274 274 273 272 272 271 270 269 269 269 268 268 268 268 267 266 265 265 264 263 263 263 262 262 261 261 261 261 261 262 262 262 262 262 263 263 264 265 265 265 265 265 265 264 264 264 264
281 281 281 281 281 282 282 281 280 280 281 284 284 282 281 281 281 280 279 279 279 279 280 280 280 279 278 277 277 276 276 276 275 275 275 276 276 275 275 275 274 274 273 273 272 271 270 270 269 268 267 267 267 267 267 267 266 265 264 264 263 262 262 261 260 260 260 260 260 260 260 260 260 261 261 262 262 263 264 264 264 263 263 264 264 264
280 280 280 280 280 281 281 281 280 281 284 284 283 281 281 281 280 279 278 278 279 279 279 279 278 278 277 277 276 276 275 275 275 275 276 276 276 275 275 275 275 274 274 273 273 273 272 271 270 269 268 268 267 267 267 267 266 266 266 265 264 263 262 261 261 260 260 259 259 259 259 259 259 259 260 260 260 261 262 262 263 263 263 262 262 262
280 280 279 279 279 280 280 280 281 282 283 283 282 282 281 279 278 278 278 278 278 277 277 276 276 276 276 276 276 276 275 275 276 276 276 276 276 276 275 275 274 274 274 273 273 272 272 271 271 270 270 269 268 268 267 267 267 267 267 266 266 265 264 263 262 261 260 260 259 259 259 258 258 258 258 259 259 259 260 260 261 262 263 263 262 262
280 280 280 280 280 281 281 281 282 282 282 282 282 281 280 279 278 278 278 277 276 275 275 275 275 275 275 276 276 276 276 276 276 277 277 277 277 277 276 275 275 274 274 273 273 273 272 272 271 271 270 270 269 269 268 268 268 268 267 267 267 267 266 266 264 263 261 260 260 259 259 259 258 258 258 258 258 258 258 259 259 260 261 262 263 263
280 281 281 282 282 283 283 283 283 283 283 283 282 281 280 280 280 279 277 275 274 273 273 273 273 273 274 275 275 276 276 277 277 278 278 277 277 276 276 275 275 274 274 274 274 274 274 273 273 273 272 272 271 271 270 270 269 269 268 268 268 268 267 267 266 265 264 263 262 261 260 260 260 259 258 258 258 257 257 257 258 258 259 260 261 262
281 281 282 282 283 283 283 283 284 284 284 283 282 281 281 280 280 278 277 276 275 274 272 272 272 273 273 274 275 276 277 278 278 278 276 276 276 276 276 275 275 275 275 275 275 274 274 274 275 275 274 274 273 273 272 272 271 271 270 270 270 269 269 268 268 267 266 266 265 264 263 262 261 260 260 259 259 258 258 257 257 257 258 258 259 260
280 280 280 281 282 283 283 283 283 283 283 283 283 282 281 280 279 277 277 277 276 274 274 274 274 274 275 275 276 276 277 277 276 275 275 274 275 275 276 276 276 275 275 275 275 275 275 275 275 275 275 275 275 275 275 274 274 273 273 272 271 271 270 270 269 269 269 268 267 266 265 264 263 262 261 260 259 259 259 258 258 257 257 257 257 258
279 279 279 280 281 281 281 281 282 282 283 283 283 282 281 279 277 277 277 278 277 276 277 277 277 277 277 277 277 277 276 276 276 275 275 274 274 274 275 275 275 275 275 275 275 275 275 275 276 276 276 276 276 276 276 275 275 274 274 273 273 272 271 271 271 271 270 270 269 268 268 267 266 265 263 262 261 259 259 258 258 257 257 257 257 257
279 279 279 280 280 280 280 281 282 283 283 282 281 280 280 279 278 278 278 278 279 280 280 279 278 278 277 276 276 276 276 276 276 276 275 275 274 274 274 274 274 275 275 275 275 276 276 276 277 277 277 277 277 277 276 276 276 275 275 274 274 273 273 273 272 272 271 271 270 269 268 268 267 266 266 265 264 262 261 260 259 258 257 257 257 257
279 279 280 280 280 280 280 282 283 282 281 280 279 279 279 279 279 280 280 281 281 282 281 279 279 278 278 277 277 276 276 276 276 276 276 275 275 274 274 274 274 275 275 276 276 276 277 277 277 277 277 277 277 277 277 277 276 276 275 275 274 273 273 273 273 272 271 271 270 269 269 268 267 267 266 265 265 264 263 262 261 260 259 258 257 257
280 281 281 281 281 281 282 283 282 281 280 279 279 279 279 280 280 281 281 282 282 282 281 280 279 278 278 278 277 277 277 277 277 277 277 276 276 276 275 275 275 276 276 277 277 277 277 277 277 277 277 277 277 277 277 277 277 276 276 275 274 274 274 273 273 272 272 271 270 270 269 268 268 267 267 266 265 264 263 262 262 261 261 260 259 258
282 282 282 282 282 282 282 282 280 279 279 279 279 280 280 280 281 281 281 281 281 281 280 280 279 279 278 278 278 278 278 278 278 278 278 278 277 277 277 277 277 277 277 278 278 278 279 279 278 278 278 278 278 277 277 277 276 276 275 275 275 275 274 274 273 272 272 271 271 270 270 269 268 268 267 267 266 265 264 263 262 261 261 260 260 259
282 282 282 283 282 282 281 281 279 279 279 280 280 281 281 281 281 281 281 281 280 279 279 279 279 279 279 279 280 280 279 279 279 279 279 279 278 278 278 278 278 278 279 279 279 279 280 279 279 279 278 278 277 277 277 277 277 276 275 275 275 275 274 273 272 272 272 271 271 270 270 269 269 268 268 268 267 266 265 264 263 262 261 260 260 260
282 282 283 283 281 281 281 280 279 279 281 281 281 281 282 282 282 281 281 280 280 279 279 279 279 280 280 280 280 280 280 279 279 279 279 279 279 279 279 279 279 280 280 280 280 280 280 280 280 280 279 279 279 278 278 278 278 277 276 276 275 275 274 273 273 272 272 271 271 270 269 269 268 267 267 267 267 266 266 265 264 263 262 261 260 260
282 282 282 281 280 281 282 281 279 280 281 282 282 281 281 281 281 281 281 281 281 280 280 281 281 281 281 281 281 280 280 280 279 279 279 279 280 280 280 280 281 281 281 281 281 281 281 281 281 281 281 281 280 280 280 279 279 278 278 277 276 275 275 274 273 273 272 271 271 270 270 269 268 267 267 266 266 265 265 265 264 263 263 262 261 260
281 282 281 280 280 282 282 281 280 280 282 282 281 280 280 280 280 281 281 282 282 282 282 282 282 282 281 281 281 280 280 280 280 280 279 279 280 280 281 281 281 281 281 281 281 282 282 282 281 281 282 281 281 280 280 279 279 279 278 278 277 276 275 275 275 275 274 273 273 272 271 270 270 269 268 267 266 265 265 265 264 264 264 263 262 262
282 282 281 281 281 282 281 281 281 282 282 282 281 280 281 281 281 281 282 283 283 284 284 284 283 282 282 281 281 281 280 280 280 280 280 280 280 281 281 281 281 281 281 281 281 281 282 282 282 282 281 280 280 279 279 279 279 278 278 278 277 277 278 277 277 277 276 275 274 273 272 271 270 270 269 268 267 266 265 265 264 264 264 263 262 262
282 282 281 282 282 281 280 280 281 281 282 281 280 281 281 282 282 283 284 284 284 284 284 284 284 283 283 282 282 281 281 281 281 281 282 282 282 282 282 281 281 281 281 281 281 282 282 283 283 282 281 280 280 279 279 278 277 277 277 278 279 279 279 278 278 277 276 275 274 273 272 271 270 269 269 268 267 267 266 266 265 264 264 262 261 262
Height
10755 10758 10758 10753 10747 10747 10750 10750 10750 10751 10751 10752 10752 10752 10752 10752 10752 10749 10746 10747 10747 10751 10752 10748 10747 10747 10746 10744 10741 10738 10735 10734 10730 10725 10720 10717 10715 10711 10707 10707 10710 10713 10715 10716 10717 10718 10718 10718 10718 10718 10718 10718 10717 10717 10716 10715 10715 10714 10712 10710 10708 10707 10708 10708 10708 10707 10707 10707 10706 10705 10704 10703 10703 10702 10702 10701 10700 10699 10699 10698 10698 10698 10697 10697 10697 10698
10749 10753 10752 10745 10741 10743 10744 10742 10743 10744 10744 10745 10745 10745 10746 10746 10746 10744 10742 10741 10741 10745 10747 10744 10743 10743 10741 10739 10736 10734 10733 10729 10723 10719 10716 10711 10708 10704 10702 10704 10706 10707 10709 10710 10711 10710 10711 10712 10713 10712 10712 10712 10712 10712 10711 10711 10710 10709 10707 10706 10704 10702 10702 10701 10701 10702 10701 10701 10701 10700 10699 10697 10697 10696 10695 10695 10694 10693 10693 10692 10691 10691 10691 10692 10692 10692
10745 10746 10743 10738 10736 10737 10736 10735 10735 10736 10737 10738 10738 10738 10740 10738 10738 10740 10737 10734 10735 10739 10740 10739 10739 10740 10736 10734 10732 10730 10728 10723 10717 10714 10710 10706 10702 10698 10698 10699 10699 10701 10703 10704 10703 10702 10703 10705 10707 10706 10706 10706 10706 10706 10705 10704 10704 10704 10703 10701 10700 10698 10696 10696 10695 10695 10695 10695 10695 10694 10693 10692 10691 10690 10689 10688 10687 10687 10686 10685 10685 10685 10685 10685 10685 10685
10739 10738 10734 10731 10729 10729 10729 10728 10727 10728 10729 10730 10729 10730 10732 10730 10729 10734 10733 10729 10730 10732 10733 10733 10734 10734 10731 10730 10729 10726 10723 10717 10712 10708 10704 10701 10698 10694 10693 10693 10692 10694 10697 10696 10694 10695 10697 10698 10699 10699 10699 10699 10699 10699 10699 10698 10697 10697 10697 10696 10695 10693 10691 10690 10689 10689 10689 10688 10687 10687 10687 10686 10686 10684 10683 10682 10681 10680 10680 10679 10679 10679 10678 10679 10679 10678
10731 10729 10726 10724 10722 10722 10722 10721 10718 10718 10722 10722 10721 10721 10722 10722 10722 10725 10726 10725 10726 10725 10725 10727 10728 10729 10727 10725 10724 10721 10717 10712 10707 10702 10696 10695 10694 10690 10688 10686 10686 10686 10688 10688 10686 10687 10690 10691 10691 10691 10691 10691 10691 10691 10691 10691 10691 10690 10690 10689 10688 10687 10686 10685 10683 10682 10682 10681 10680 10680 10679 10679 10679 10678 10677 10676 10674 10674 10674 10673 10673 10672 10672 10672 10672 10671
10723 10718 10717 10717 10716 10714 10714 10713 10708 10707 10714 10716 10713 10710 10711 10713 10714 10715 10716 10717 10720 10720 10719 10718 10720 10723 10722 10719 10718 10714 10710 10707 10702 10696 10691 10690 10689 10686 10682 10680 10679 10679 10679 10680 10680 10681 10683 10683 10684 10684 10683 10683 10683 10683 10684 10684 10684 10683 10682 10682 10681 10680 10679 10679 10677 10676 10675 10674 10673 10672 10672 10671 10671 10670 10669 10668 10668 10668 10667 10666 10666 10665 10665 10665 10665 10664
10714 10709 10708 10710 10709 10707 10707 10705 10698 10697 10706 10709 10705 10699 10700 10704 10705 10706 10707 10708 10711 10713 10713 10711 10710 10715 10716 10713 10710 10706 10703 10701 10695 10689 10686 10685 10684 10683 10678 10673 10673 10672 10672 10672 10672 10673 10674 10675 10676 10676 10676 10676 10675 10675 10675 10675 10675 10675 10675 10674 10674 10673 10672 10671 10670 10669 10668 10667 10665 10664 10663 10663 10663 10662 10661 10661 10660 10660 10659 10659 10658 10657 10658 10658 10657 10657
10705 10702 10702 10701 10701 10700 10698 10694 10690 10689 10695 10700 10697 10691 10691 10693 10694 10696 10697 10698 10702 10704 10706 10705 10701 10704 10709 10707 10702 10698 10695 10693 10687 10683 10680 10678 10679 10679 10676 10670 10667 10667 10665 10664 10664 10664 10664 10664 10666 10668 10667 10668 10669 10668 10668 10667 10667 10667 10667 10666 10666 10665 10664 10662 10662 10661 10660 10659 10658 10657 10656 10655 10654 10654 10654 10653 10652 10652 10651 10650 10650 10649 10650 10649 10650 10650
10696 10695 10696 10693 10692 10691 10689 10685 10682 10680 10682 10687 10687 10683 10682 10683 10684 10686 10687 10688 10691 10693 10698 10699 10692 10691 10699 10700 10694 10691 10688 10683 10679 10675 10672 10671 10671 10672 10673 10670 10665 10664 10661 10657 10656 10656 10654 10653 10653 10657 10657 10658 10660 10660 10660 10660 10659 10659 10658 10658 10657 10656 10656 10654 10653 10653 10652 10651 10650 10649 10648 10647 10646 10646 10646 10645 10644 10644 10643 10642 10641 10641 10642 10641 10641 10641
10687 10688 10687 10685 10683 10681 10679 10676 10674 10672 10671 10674 10674 10674 10673 10672 10674 10675 10676 10678 10679 10683 10690 10689 10681 10680 10688 10692 10687 10684 10680 10673 10668 10666 10663 10662 10664 10665 10668 10668 10664 10662 10660 10654 10650 10649 10648 10645 10642 10644 10646 10646 10648 10650 10650 10650 10649 10649 10649 10648 10647 10646 10646 10645 10645 10644 10643 10643 10642 10640 10640 10639 10638 10638 10637 10636 10636 10635 10634 10634 10633 10633 10633 10633 10632 10632
10677 10679 10678 10676 10674 10672 10670 10666 10664 10663 10661 10660 10661 10663 10662 10662 10664 10663 10665 10666 10665 10673 10680 10677 10671 10670 10677 10684 10680 10676 10672 10662 10656 10654 10651 10650 10654 10656 10658 10661 10660 10656 10654 10650 10646 10643 10642 10640 10636 10635 10635 10635 10635 10636 10637 10637 10638 10638 10637 10637 10637 10636 10636 10635 10635 10634 10633 10633 10633 10632 10631 10630 10630 10629 10628 10627 10627 10626 10625 10625 10624 10624 10624 10623 10623 10623
10669 10669 10669 10667 10664 10662 10659 10656 10656 10653 10650 10649 10649 10650 10649 10650 10651 10651 10653 10652 10650 10659 10667 10665 10662 10663 10670 10674 10668 10664 10661 10653 10647 10643 10639 10638 10644 10647 10648 10650 10649 10645 10642 10640 10638 10636 10635 10633 10631 10628 10626 10625 10625 10624 10623 10623 10623 10624 10625 10625 10625 10625 10625 10624 10624 10623 10623 10623 10623 10622 10621 10620 10620 10620 10619 10618 10617 10617 10616 10616 10615 10615 10614 10614 10613 10613
10662 10661 10658 10656 10655 10652 10647 10646 10645 10641 10639 10638 10638 10638 10636 10637 10637 10636 10638 10636 10637 10645 10650 10651 10651 10655 10665 10665 10655 10650 10644 10639 10638 10634 10629 10628 10633 10638 10639 10638 10635 10633 10631 10629 10628 10627 10626 10624 10623 10622 10618 10615 10615 10614 10613 10611 10610 10610 10611 10612 10612 10612 10612 10612 10612 10611 10611 10612 10611 10611 10611 10610 10610 10610 10610 10608 10608 10607 10606 10606 10606 10605 10605 10604 10604 10603
10651 10653 10650 10644 10643 10642 10637 10634 10632 10630 10629 10626 10627 10625 10622 10622 10619 10616 10619 10619 10624 10631 10634 10636 10638 10645 10657 10654 10644 10638 10631 10626 10625 10622 10618 10617 10620 10625 10626 10624 10621 10620 10619 10618 10617 10616 10613 10612 10611 10612 10611 10608 10606 10604 10603 10601 10599 10598 10597 10597 10598 10598 10599 10599 10600 10599 10598 10599 10599 10599 10599 10599 10599 10599 10599 10598 10597 10597 10596 10596 10596 10595 10595 10594 10593 10592
10635 10644 10646 10633 10629 10632 10627 10622 10619 10618 10617 10617 10617 10613 10611 10612 10601 10593 10598 10602 10608 10613 10616 10620 10623 10632 10643 10639 10632 10626 10620 10617 10615 10612 10609 10605 10606 10608 10609 10608 10608 10607 10605 10604 10604 10602 10601 10599 10598 10598 10598 10598 10597 10596 10594 10593 10591 10589 10587 10586 10585 10584 10585 10585 10585 10586 10585 10585 10586 10587 10587 10587 10587 10587 10587 10587 10586 10587 10586 10586 10585 10584 10584 10583 10582 10581
10620 10633 10638 10623 10617 10620 10614 10609 10607 10604 10603 10605 10606 10603 10601 10597 10585 10579 10583 10586 10589 10590 10597 10606 10607 10616 10624 10620 10618 10614 10608 10606 10603 10600 10598 10593 10591 10591 10591 10592 10592 10592 10591 10589 10588 10588 10588 10586 10585 10584 10583 10583 10582 10582 10583 10582 10581 10580 10578 10577 10576 10574 10574 10573 10573 10573 10572 10571 10571 10572 10572 10572 10573 10574 10574 10574 10574 10575 10575 10574 10574 10573 10572 10572 10571 10570
10603 10617 10626 10615 10607 10607 10603 10598 10595 10592 10590 10591 10592 10590 10585 10579 10575 10573 10570 10570 10570 10567 10576 10588 10590 10598 10604 10600 10601 10599 10593 10590 10587 10587 10585 10580 10578 10576 10576 10577 10576 10577 10575 10573 10573 10572 10572 10572 10571 10571 10569 10568 10567 10566 10567 10567 10567 10568 10567 10566 10566 10565 10564 10563 10563 10562 10562 10561 10560 10559 10559 10558 10558 10559 10560 10560 10560 10561 10562 10561 10561 10561 10561 10560 10559 10559
10581 10593 10608 10606 10596 10592 10592 10588 10586 10585 10581 10575 10572 10572 10569 10566 10566 10563 10555 10553 10554 10549 10556 10568 10572 10577 10581 10583 10588 10583 10574 10570 10569 10571 10568 10564 10563 10561 10560 10560 10559 10560 10559 10557 10556 10555 10556 10556 10556 10556 10555 10554 10552 10551 10551 10551 10551 10552 10551 10551 10551 10551 10551 10551 10551 10550 10549 10550 10549 10549 10548 10547 10545 10545 10545 10545 10546 10546 10547 10547 10548 10548 10548 10546 10546 10546
10563 10566 10583 10593 10585 10575 10575 10578 10578 10577 10570 10560 10556 10557 10556 10554 10551 10547 10540 10537 10537 10533 10536 10545 10553 10559 10562 10569 10571 10562 10556 10555 10555 10555 10549 10545 10546 10545 10544 10543 10541 10541 10541 10539 10539 10538 10539 10539 10539 10540 10539 10538 10538 10537 10536 10535 10534 10535 10534 10534 10534 10534 10535 10535 10535 10535 10534 10534 10534 10534 10534 10533 10532 10531 10531 10531 10531 10531 10532 10533 10534 10534 10533 10532 10532 10532
10552 10546 10556 10575 10574 10562 10561 10567 10566 10560 10552 10547 10546 10546 10545 10541 10535 10528 10524 10523 10522 10518 10517 10519 10525 10536 10549 10557 10551 10541 10541 10542 10538 10536 10532 10529 10529 10527 10525 10525 10523 10523 10522 10521 10521 10521 10522 10522 10521 10522 10521 10521 10521 10521 10521 10520 10519 10519 10518 10518 10517 10516 10517 10517 10518 10518 10518 10517 10517 10517 10517 10516 10516 10515 10515 10515 10515 10516 10516 10518 10519 10519 10518 10518 10518 10517
10540 10533 10533 10548 10558 10555 10554 10555 10548 10541 10537 10534 10532 10532 10531 10526 10518 10510 10507 10510 10510 10501 10498 10498 10496 10509 10531 10540 10534 10528 10527 10525 10520 10518 10515 10513 10511 10508 10507 10505 10504 10504 10503 10501 10502 10501 10502 10503 10503 10503 10502 10502 10502 10502 10503 10503 10502 10502 10502 10502 10501 10500 10500 10500 10499 10499 10500 10500 10500 10500 10499 10498 10498 10498 10497 10498 10498 10499 10500 10502 10503 10503 10503 10503 10503 10502
10526 10521 10517 10524 10535 10543 10545 10540 10531 10527 10525 10520 10516 10517 10517 10510 10501 10494 10491 10497 10497 10485 10481 10480 10474 10484 10505 10514 10515 10516 10511 10505 10502 10499 10498 10496 10493 10491 10490 10487 10486 10486 10484 10483 10483 10482 10482 10482 10481 10481 10481 10482 10482 10482 10482 10483 10483 10482 10482 10483 10484 10483 10483 10482 10481 10480 10481 10481 10481 10481 10481 10481 10481 10480 10479 10479 10479 10480 10482 10484 10486 10487 10488 10488 10487 10486
10512 10508 10506 10508 10513 10521 10526 10526 10519 10513 10509 10504 10500 10501 10500 10494 10489 10481 10475 10479 10479 10470 10469 10466 10457 10463 10479 10486 10490 10492 10489 10486 10484 10480 10479 10478 10475 10473 10471 10469 10468 10467 10467 10466 10466 10464 10463 10463 10462 10462 10462 10462 10462 10463 10462 10462 10462 10461 10461 10461 10462 10463 10463 10463 10463 10462 10462 10462 10461 10461 10462 10462 10463 10462 10461 10460 10460 10460 10461 10463 10467 10469 10470 10471 10470 10470
10498 10494 10491 10491 10494 10499 10505 10509 10505 10498 10492 10486 10484 10485 10481 10477 10477 10469 10461 10460 10458 10454 10457 10452 10441 10446 10457 10461 10462 10463 10464 10466 10465 10463 10461 10458 10456 10454 10451 10449 10449 10448 10449 10448 10447 10447 10447 10446 10446 10444 10444 10444 10443 10443 10442 10442 10441 10441 10441 10441 10442 10442 10443 10443 10443 10443 10444 10444 10443 10442 10442 10443 10443 10443 10443 10442 10440 10439 10439 10440 10444 10448 10450 10452 10453 10453
10482 10479 10476 10473 10474 10478 10484 10488 10487 10481 10475 10467 10464 10465 10460 10457 10457 10452 10448 10443 10436 10438 10443 10433 10422 10429 10435 10434 10434 10438 10441 10443 10443 10442 10441 10438 10436 10434 10431 10430 10429 10429 10429 10429 10428 10429 10429 10428 10428 10427 10425 10425 10424 10423 10423 10422 10421 10420 10420 10420 10421 10421 10421 10422 10423 10424 10425 10426 10426 10425 10424 10423 10423 10423 10423 10423 10422 10421 10419 10419 10420 10423 10427 10431 10433 10435
10461 10461 10461 10456 10452 10455 10460 10463 10463 10461 10456 10449 10445 10444 10442 10440 10439 10436 10433 10427 10420 10422 10423 10411 10404 10411 10413 10409 10409 10413 10417 10418 10418 10417 10417 10417 10415 10415 10414 10413 10412 10411 10411 10410 10409 10408 10408 10408 10408 10407 10407 10406 10405 10405 10405 10404 10403 10401 10400 10399 10400 10401 10401 10402 10403 10404 10405 10406 10407 10407 10405 10405 10404 10403 10403 10403 10403 10403 10402 10401 10400 10400 10402 10407 10411 10414
10440 10440 10443 10439 10432 10432 10436 10438 10439 10436 10430 10427 10426 10426 10425 10425 10425 10422 10419 10416 10411 10404 10396 10393 10393 10390 10389 10390 10389 10390 10390 10389 10389 10391 10393 10394 10393 10392 10393 10393 10393 10392 10391 10390 10389 10388 10388 10388 10388 10388 10388 10388 10388 10387 10387 10386 10385 10384 10382 10380 10379 10380 10381 10382 10383 10383 10384 10384 10385 10386 10386 10386 10385 10385 10384 10383 10382 10383 10383 10383 10382 10380 10380 10382 10386 10390
10422 10421 10428 10426 10416 10416 10420 10420 10419 10415 10409 10406 10407 10409 10410 10408 10408 10408 10406 10403 10396 10381 10371 10378 10379 10367 10364 10372 10374 10371 10368 10363 10363 10365 10366 10368 10369 10368 10369 10370 10370 10370 10369 10369 10369 10368 10368 10368 10368 10368 10369 10369 10369 10369 10369 10369 10369 10368 10367 10365 10362 10361 10361 10361 10362 10362 10362 10362 10363 10363 10363 10363 10364 10365 10365 10364 10363 10362 10361 10361 10361 10360 10359 10360 10363 10366
10404 10404 10412 10408 10399 10402 10405 10403 10401 10396 10389 10387 10389 10391 10394 10395 10394 10393 10386 10379 10371 10357 10350 10357 10358 10348 10348 10354 10354 10351 10346 10342 10341 10341 10341 10343 10345 10345 10345 10345 10345 10345 10346 10347 10347 10349 10349 10348 10348 10348 10348 10348 10349 10349 10349 10349 10349 10349 10349 10348 10346 10344 10341 10340 10339 10339 10339 10339 10339 10339 10339 10339 10339 10339 10340 10341 10341 10340 10339 10338 10337 10337 10337 10338 10340 10343
10384 10386 10391 10386 10379 10382 10385 10384 10380 10372 10366 10368 10371 10374 10377 10382 10383 10376 10363 10355 10346 10333 10329 10332 10331 10330 10335 10336 10331 10327 10324 10321 10320 10320 10321 10322 10322 10323 10323 10322 10323 10323 10324 10325 10326 10328 10329 10328 10328 10327 10327 10326 10326 10327 10327 10327 10327 10326 10325 10325 10325 10324 10322 10320 10318 10317 10316 10316 10316 10316 10316 10315 10314 10314 10314 10315 10316 10316 10316 10315 10313 10313 10313 10314 10316 10319
10363 10364 10368 10363 10355 10357 10366 10366 10358 10349 10344 10346 10353 10359 10366 10368 10362 10350 10341 10335 10325 10315 10314 10313 10306 10308 10318 10317 10307 10303 10302 10301 10301 10301 10302 10302 10300 10300 10300 10301 10303 10304 10305 10306 10306 10306 10306 10305 10305 10306 10305 10305 10304 10304 10304 10304 10303 10302 10301 10301 10300 10300 10300 10299 10298 10297 10296 10295 10294 10294 10294 10293 10292 10291 10291 10291 10291 10292 10292 10293 10293 10292 10292 10292 10293 10294
10344 10342 10344 10340 10329 10333 10348 10346 10335 10330 10325 10327 10340 10351 10352 10345 10332 10325 10322 10317 10309 10301 10296 10292 10287 10291 10296 10292 10285 10283 10281 10281 10282 10283 10283 10282 10280 10281 10281 10282 10284 10286 10287 10287 10286 10285 10284 10283 10282 10282 10282 10282 10282 10282 10282 10282 10281 10280 10279 10278 10278 10278 10278 10277 10277 10277 10277 10277 10276 10275 10275 10274 10273 10271 10269 10269 10270 10270 10270 10270 10271 10271 10271 10272 10273 10274
10328 10321 10320 10317 10305 10310 10327 10325 10314 10307 10304 10318 10339 10339 10326 10318 10311 10307 10304 10299 10296 10289 10277 10270 10272 10273 10271 10267 10265 10263 10262 10263 10264 10263 10263 10263 10263 10264 10264 10265 10266 10265 10265 10264 10263 10263 10263 10263 10263 10262 10260 10259 10258 10257 10258 10258 10259 10259 10258 10257 10257 10257 10258 10258 10258 10258 10258 10257 10256 10256 10256 10255 10255 10254 10252 10250 10249 10249 10250 10250 10250 10250 10250 10250 10252 10253
10314 10305 10300 10295 10284 10287 10303 10304 10290 10283 10290 10312 10327 10316 10303 10300 10293 10285 10282 10282 10282 10276 10263 10254 10252 10250 10247 10246 10245 10243 10243 10244 10245 10246 10248 10247 10247 10246 10246 10246 10245 10243 10242 10241 10241 10241 10242 10242 10243 10242 10241 10239 10237 10235 10234 10234 10235 10237 10237 10237 10236 10236 10236 10237 10238 10238 10238 10238 10237 10235 10235 10235 10236 10236 10235 10234 10231 10229 10229 10229 10230 10231 10230 10231 10232 10232
10297 10292 10286 10280 10270 10267 10278 10279 10266 10266 10283 10298 10297 10292 10290 10284 10270 10261 10263 10268 10268 10261 10250 10241 10232 10227 10225 10224 10224 10223 10224 10226 10229 10233 10234 10232 10229 10228 10228 10228 10226 10222 10221 10220 10219 10220 10220 10220 10220 10220 10220 10219 10217 10215 10213 10212 10213 10214 10215 10214 10214 10214 10215 10216 10217 10217 10217 10218 10218 10217 10216 10216 10216 10216 10216 10216 10214 10213 10211 10210 10209 10209 10209 10212 10214 10214
10276 10273 10267 10264 10259 10254 10257 10258 10252 10255 10271 10277 10272 10273 10271 10259 10249 10244 10245 10253 10255 10244 10234 10226 10216 10210 10208 10205 10204 10203 10205 10209 10216 10221 10220 10215 10212 10210 10209 10211 10209 10204 10201 10200 10199 10199 10199 10198 10198 10199 10199 10199 10197 10195 10193 10193 10195 10195 10194 10192 10191 10191 10193 10194 10196 10196 10196 10199 10200 10198 10197 10197 10197 10197 10196 10195 10195 10195 10195 10193 10192 10190 10188 10190 10192 10195
10254 10250 10247 10242 10242 10239 10236 10238 10239 10240 10250 10257 10255 10252 10244 10234 10233 10230 10227 10234 10239 10229 10219 10211 10201 10196 10193 10190 10187 10186 10188 10193 10200 10207 10207 10200 10194 10190 10189 10192 10191 10185 10182 10180 10179 10179 10179 10178 10178 10179 10180 10180 10178 10175 10174 10175 10177 10177 10176 10173 10170 10169 10171 10172 10172 10172 10174 10179 10181 10179 10177 10177 10178 10177 10177 10176 10176 10176 10177 10176 10175 10174 10171 10170 10171 10173
10237 10233 10230 10222 10222 10225 10218 10215 10220 10224 10228 10235 10234 10230 10223 10216 10216 10211 10203 10209 10220 10217 10205 10195 10188 10185 10181 10177 10174 10172 10173 10177 10185 10194 10193 10185 10177 10170 10168 10170 10170 10167 10164 10162 10160 10159 10158 10157 10159 10160 10161 10160 10158 10155 10153 10155 10159 10159 10158 10156 10152 10150 10151 10151 10149 10149 10153 10159 10160 10159 10157 10157 10157 10158 10158 10158 10158 10158 10159 10159 10158 10157 10156 10155 10155 10155
10224 10218 10214 10205 10205 10210 10201 10195 10202 10207 10209 10211 10209 10208 10206 10202 10199 10190 10178 10185 10201 10199 10186 10179 10179 10177 10170 10165 10164 10162 10162 10164 10170 10176 10174 10167 10161 10153 10148 10150 10152 10150 10148 10146 10142 10140 10139 10139 10140 10141 10140 10139 10137 10135 10134 10136 10138 10139 10139 10137 10134 10132 10132 10129 10128 10130 10135 10138 10138 10137 10136 10136 10136 10136 10137 10139 10139 10139 10141 10142 10141 10141 10139 10139 10140 10140
10212 10205 10200 10194 10195 10195 10187 10182 10186 10189 10192 10191 10186 10186 10188 10185 10178 10169 10161 10167 10177 10175 10169 10168 10169 10166 10159 10155 10153 10152 10152 10151 10151 10154 10154 10151 10147 10140 10133 10131 10131 10130 10129 10128 10124 10122 10122 10124 10125 10124 10123 10120 10117 10116 10116 10117 10119 10120 10119 10116 10114 10114 10110 10108 10110 10113 10115 10116 10116 10115 10114 10113 10113 10114 10115 10117 10119 10120 10121 10122 10122 10122 10121 10121 10122 10124
10198 10191 10187 10187 10186 10181 10173 10168 10169 10175 10180 10175 10165 10163 10166 10162 10156 10153 10150 10151 10152 10155 10159 10159 10154 10151 10149 10145 10141 10137 10136 10134 10132 10134 10136 10135 10133 10129 10122 10114 10111 10111 10111 10109 10107 10105 10106 10108 10109 10108 10107 10105 10101 10099 10098 10098 10100 10102 10100 10097 10096 10094 10090 10090 10095 10097 10096 10096 10096 10094 10092 10090 10089 10090 10092 10094 10096 10099 10101 10101 10101 10102 10103 10102 10103 10105
10180 10175 10177 10179 10173 10165 10160 10157 10156 10161 10165 10158 10148 10146 10144 10137 10136 10138 10138 10136 10137 10142 10146 10142 10137 10135 10132 10130 10127 10123 10120 10120 10117 10116 10117 10118 10116 10113 10108 10101 10096 10094 10093 10091 10090 10090 10091 10093 10093 10092 10092 10089 10084 10082 10081 10080 10082 10084 10082 10080 10079 10075 10073 10077 10080 10079 10077 10078 10077 10074 10071 10069 10068 10069 10070 10071 10073 10075 10080 10082 10081 10081 10083 10084 10083 10085
10162 10159 10164 10166 10155 10147 10150 10151 10144 10142 10145 10140 10132 10129 10126 10121 10121 10124 10123 10123 10126 10128 10126 10122 10121 10118 10113 10112 10112 10109 10107 10107 10104 10101 10101 10101 10099 10095 10091 10087 10082 10079 10078 10076 10075 10075 10077 10078 10078 10078 10077 10073 10068 10065 10064 10063 10066 10067 10065 10062 10060 10057 10058 10063 10062 10058 10058 10058 10056 10054 10052 10050 10049 10050 10050 10051 10052 10053 10058 10062 10060 10059 10061 10063 10064 10066
10147 10144 10147 10151 10142 10132 10138 10143 10129 10118 10125 10126 10116 10111 10111 10109 10109 10110 10110 10112 10112 10110 10107 10104 10104 10104 10099 10096 10095 10094 10093 10092 10089 10088 10087 10085 10082 10078 10074 10072 10070 10067 10065 10063 10060 10061 10061 10062 10063 10064 10063 10059 10053 10049 10048 10048 10048 10049 10047 10043 10041 10041 10044 10046 10043 10040 10040 10039 10036 10035 10033 10032 10032 10032 10030 10031 10032 10034 10038 10041 10040 10039 10039 10040 10042 10046
10134 10129 10129 10135 10130 10119 10125 10129 10110 10096 10108 10114 10104 10098 10098 10096 10096 10096 10097 10099 10099 10095 10090 10086 10086 10088 10084 10081 10081 10081 10079 10077 10075 10074 10071 10068 10067 10063 10058 10057 10056 10052 10051 10049 10047 10046 10045 10045 10048 10048 10048 10046 10039 10032 10032 10031 10029 10030 10030 10027 10025 10026 10028 10028 10025 10024 10023 10021 10018 10017 10015 10014 10015 10014 10012 10011 10013 10015 10019 10021 10020 10021 10021 10020 10021 10025
10119 10114 10114 10119 10115 10106 10110 10111 10090 10079 10095 10103 10094 10088 10083 10080 10083 10083 10081 10083 10085 10081 10077 10073 10072 10073 10070 10068 10068 10067 10065 10063 10061 10059 10056 10053 10051 10048 10045 10043 10041 10038 10037 10036 10034 10032 10031 10030 10031 10031 10031 10031 10025 10017 10016 10015 10011 10011 10013 10012 10010 10010 10010 10010 10009 10007 10006 10003 10002 10000 9998 9997 9999 9998 9995 9994 9995 9996 9999 10001 10001 10002 10003 10003 10002 10004
10102 10100 10103 10104 10097 10091 10096 10093 10073 10067 10083 10089 10082 10078 10071 10064 10067 10067 10064 10067 10069 10066 10065 10062 10059 10059 10058 10056 10055 10053 10052 10050 10047 10045 10043 10039 10035 10033 10031 10029 10027 10024 10022 10021 10019 10018 10016 10015 10014 10014 10013 10014 10010 10004 10000 9998 9994 9992 9993 9995 9994 9992 9992 9992 9991 9990 9990 9987 9984 9983 9982 9981 9982 9982 9980 9978 9978 9978 9980 9981 9981 9981 9984 9985 9984 9985
10085 10088 10090 10086 10081 10079 10082 10077 10060 10056 10071 10077 10068 10064 10061 10055 10052 10050 10048 10051 10052 10051 10052 10050 10047 10046 10044 10042 10041 10040 10038 10036 10033 10032 10029 10025 10022 10020 10018 10015 10014 10011 10008 10006 10004 10002 10002 10001 10000 9998 9997 9996 9994 9990 9986 9981 9977 9975 9975 9977 9976 9974 9975 9976 9974 9973 9974 9972 9968 9968 9967 9964 9965 9967 9965 9963 9962 9961 9962 9963 9962 9963 9966 9968 9966 9966
10068 10076 10074 10066 10069 10073 10067 10056 10045 10045 10060 10065 10053 10046 10047 10046 10042 10039 10036 10036 10036 10036 10037 10036 10035 10033 10031 10028 10028 10026 10023 10022 10020 10018 10015 10013 10010 10008 10005 10003 10001 9998 9995 9993 9990 9987 9987 9986 9985 9984 9983 9980 9977 9974 9972 9967 9963 9960 9959 9959 9959 9957 9957 9960 9960 9958 9958 9955 9953 9953 9953 9950 9951 9951 9949 9948 9948 9946 9946 9947 9946 9946 9950 9953 9950 9948
10051 10062 10057 10050 10059 10064 10053 10040 10031 10032 10045 10050 10039 10031 10032 10033 10030 10028 10027 10025 10024 10022 10020 10019 10019 10018 10016 10015 10013 10011 10010 10008 10005 10003 10002 10000 9998 9996 9994 9991 9989 9985 9982 9979 9977 9975 9973 9971 9971 9970 9968 9964 9961 9959 9958 9955 9951 9946 9942 9942 9943 9943 9944 9946 9947 9945 9943 9939 9937 9938 9938 9937 9936 9934 9932 9931 9932 9931 9931 9932 9931 9930 9934 9938 9935 9932
10035 10046 10042 10037 10044 10049 10042 10031 10022 10019 10028 10033 10026 10020 10020 10019 10017 10016 10015 10013 10013 10011 10008 10005 10003 10001 10000 9999 9997 9996 9996 9994 9991 9990 9988 9987 9985 9983 9979 9977 9975 9973 9969 9966 9965 9964 9962 9958 9956 9953 9950 9949 9947 9946 9944 9941 9936 9932 9931 9931 9932 9932 9932 9931 9931 9930 9927 9923 9921 9923 9922 9922 9921 9918 9916 9915 9915 9915 9916 9916 9915 9914 9916 9920 9921 9918